FW5647 Weather Reports


Display with metric or nautical units.
time (UTC)temp
F
wind
direction
speed
MPH
gust
MPH
rain 1hr
in
rain 24hr
in
rain mn
in
humidity
%
barometer
mb
20260509063040 47 162 0.0 3.0 0.00 0.00 0.00 88 1006.2
20260509061550 47 0 0.0 1.0 0.00 0.00 0.00 87 1006.3
20260509060039 47 0 0.0 2.0 0.00 0.00 0.00 87 1006.5
20260509054538 47 0 0.0 1.0 0.00 0.00 0.00 87 1006.5
20260509053037 47 165 0.0 1.0 0.00 0.00 0.00 86 1006.7
20260509051545 48 0 0.0 0.0 0.00 0.00 0.00 85 1006.7
20260509050041 48 0 0.0 0.0 0.00 0.00 0.00 84 1006.9
20260509044538 49 0 0.0 1.0 0.00 0.00 0.00 84 1006.9
20260509043042 50 0 0.0 2.0 0.00 0.00 0.00 85 1007.1
20260509041543 50 0 0.0 2.0 0.00 0.00 0.00 85 1007.1
20260509040042 50 0 0.0 2.0 0.00 0.00 0.00 85 1007.3
20260509034533 49 158 0.0 0.0 0.00 0.00 0.00 83 1007.4
20260509033034 50 0 0.0 0.0 0.00 0.00 0.00 81 1007.2
20260509031538 51 0 0.0 1.0 0.00 0.00 0.00 79 1007.4
20260509030039 51 0 0.0 0.0 0.00 0.00 0.00 78 1007.5
20260509024534 53 0 0.0 2.0 0.00 0.00 0.00 76 1007.7
20260509023032 53 0 0.0 1.0 0.00 0.00 0.00 75 1007.7
20260509021532 53 297 0.0 1.0 0.00 0.00 0.00 75 1007.7
20260509020034 54 0 0.0 1.0 0.00 0.00 0.00 72 1007.3
20260509014533 56 0 0.0 3.0 0.00 0.00 0.00 71 1007.5
20260509013046 56 307 1.0 3.0 0.00 0.00 0.00 69 1007.2
20260509011536 57 134 0.0 5.0 0.00 0.00 0.00 66 1006.9
20260509010032 58 262 1.0 4.0 0.00 0.00 0.00 62 1006.9
20260509004559 59 105 1.0 3.0 0.00 0.00 0.00 53 1006.7
20260509003043 60 225 0.0 2.0 0.00 0.00 0.00 48 1006.7
20260509001536 61 264 2.0 5.0 0.00 0.00 0.00 46 1006.5
20260509000036 62 259 2.0 7.0 0.00 0.00 0.00 45 1006.5
20260508234534 64 255 3.0 7.0 0.00 0.00 0.00 42 1006.5
20260508233037 64 231 3.0 6.0 0.00 0.00 0.00 40 1006.5
20260508231537 64 321 3.0 10.0 0.00 0.00 0.00 40 1006.5
20260508230050 63 212 2.0 7.0 0.00 0.00 0.00 41 1006.6
20260508224537 63 331 3.0 12.0 0.00 0.00 0.00 39 1006.6
20260508223034 64 282 2.0 14.0 0.00 0.00 0.00 39 1006.6
20260508221537 65 293 2.0 7.0 0.00 0.00 0.00 40 1006.8
20260508220046 63 266 3.0 9.0 0.00 0.00 0.00 42 1007.0
20260508214546 64 252 3.0 14.0 0.00 0.00 0.00 40 1006.9
20260508213037 63 253 3.0 12.0 0.00 0.00 0.00 42 1007.0
20260508211536 65 309 5.0 10.0 0.00 0.00 0.00 41 1006.9
20260508210042 64 239 3.0 13.0 0.00 0.00 0.00 41 1007.1
20260508204541 64 271 4.0 12.0 0.00 0.00 0.00 38 1007.0
20260508203037 63 263 5.0 11.0 0.00 0.00 0.00 38 1007.2
20260508201537 63 241 5.0 13.0 0.00 0.00 0.00 38 1007.4
20260508200045 62 256 2.0 13.0 0.00 0.00 0.00 39 1007.7
20260508194535 63 256 6.0 13.0 0.00 0.00 0.00 39 1008.0
20260508193037 63 307 5.0 13.0 0.00 0.00 0.00 41 1008.2
20260508191544 62 310 4.0 15.0 0.00 0.00 0.00 39 1008.5
20260508190049 62 278 4.0 10.0 0.00 0.00 0.00 41 1008.8
20260508184556 62 248 5.0 14.0 0.00 0.00 0.00 42 1009.2
20260508183037 62 293 4.0 8.0 0.00 0.00 0.00 42 1009.3
20260508181550 62 91 4.0 9.0 0.00 0.00 0.00 41 1009.4
20260508180036 60 320 3.0 12.0 0.00 0.00 0.00 43 1009.4
20260508174543 60 296 5.0 15.0 0.00 0.00 0.00 43 1009.8
20260508173043 60 241 6.0 13.0 0.00 0.00 0.00 40 1009.8
20260508171536 60 257 5.0 13.0 0.00 0.00 0.00 41 1010.3
20260508170040 59 101 3.0 8.0 0.00 0.00 0.00 44 1010.6
20260508164554 59 210 3.0 8.0 0.00 0.00 0.00 47 1010.8
20260508163040 57 321 1.0 8.0 0.00 0.00 0.00 47 1010.7
20260508161547 57 264 4.0 13.0 0.00 0.00 0.00 48 1011.0
20260508160040 57 263 3.0 7.0 0.00 0.00 0.00 50 1011.2
20260508154541 56 245 3.0 7.0 0.00 0.00 0.00 52 1011.3
20260508153103 55 270 2.0 8.0 0.00 0.00 0.00 52 1011.4
20260508151533 55 349 1.0 5.0 0.00 0.00 0.00 53 1011.5
20260508150045 54 23 3.0 7.0 0.00 0.00 0.00 54 1011.6
20260508144551 53 83 2.0 6.0 0.00 0.00 0.00 52 1011.6
20260508143037 53 262 3.0 6.0 0.00 0.00 0.00 52 1011.9
20260508141542 54 226 1.0 5.0 0.00 0.00 0.00 63 1011.9
20260508140048 51 240 2.0 5.0 0.00 0.00 0.00 65 1012.1
20260508134540 51 125 1.0 3.0 0.00 0.00 0.00 69 1012.2
20260508133104 52 272 1.0 3.0 0.00 0.00 0.00 70 1012.3
20260508131538 50 92 0.0 2.0 0.00 0.00 0.00 75 1012.2
20260508130038 48 150 1.0 4.0 0.00 0.00 0.00 78 1012.2
20260508124536 47 106 2.0 4.0 0.00 0.00 0.00 79 1012.1
20260508123039 46 108 1.0 4.0 0.00 0.00 0.00 82 1011.9
20260508121538 45 124 1.0 4.0 0.00 0.00 0.00 86 1011.9
20260508120037 42 0 0.0 1.0 0.00 0.00 0.00 94 1011.8
20260508114536 39 0 0.0 0.0 0.00 0.00 0.00 94 1011.5
20260508113034 38 0 0.0 0.0 0.00 0.00 0.00 94 1011.3
20260508111535 36 0 0.0 0.0 0.00 0.00 0.00 93 1011.2
20260508110047 35 0 0.0 0.0 0.00 0.00 0.00 92 1011.1
20260508104539 35 0 0.0 0.0 0.00 0.00 0.00 92 1011.1
20260508103035 35 0 0.0 0.0 0.00 0.00 0.00 91 1010.8
20260508101534 35 0 0.0 0.0 0.00 0.00 0.00 91 1010.9
20260508100032 36 0 0.0 0.0 0.00 0.00 0.00 91 1010.9
20260508094534 36 0 0.0 0.0 0.00 0.00 0.00 90 1010.9
20260508093038 37 0 0.0 0.0 0.00 0.00 0.00 90 1010.9
20260508091542 37 0 0.0 0.0 0.00 0.00 0.00 90 1011.0
20260508090045 38 0 0.0 0.0 0.00 0.00 0.00 89 1011.0
20260508084535 38 0 0.0 0.0 0.00 0.00 0.00 88 1010.9
20260508083042 39 0 0.0 0.0 0.00 0.00 0.00 88 1011.0
20260508081537 40 0 0.0 0.0 0.00 0.00 0.00 86 1011.1
20260508080032 41 0 0.0 0.0 0.00 0.00 0.00 85 1011.2
20260508074544 42 0 0.0 1.0 0.00 0.00 0.00 84 1011.2
20260508073041 43 0 0.0 2.0 0.00 0.00 0.00 83 1011.3
20260508071549 43 0 0.0 2.0 0.00 0.00 0.00 81 1011.4
20260508070036 43 249 1.0 2.0 0.00 0.00 0.00 82 1011.5
20260508064538 44 281 0.0 3.0 0.00 0.00 0.00 80 1011.3